When you browse on this site, cookies collect data to enhance your experience and personalize the content and advertising you see.
Visit our Privacy Policy to learn more. By continuing to use the site, you agree to this use of cookies and data.
  • en France
  • Liste des pays
  • À 7 jours
  • Température de l'eau
  • Carte météo
  • Widgets météo
  • user-avatar
    Se connecter

    Météo par heure à Tadzhura

    Ce jour, 26 Mai, Mardi

    Heure Température Précipitation Vent Pression Humidité
    00:00 +36°C° 0 mm 3 m/s 753 mmHg 43%
    01:00 +36°C° 0 mm 3 m/s 753 mmHg 49%
    02:00 +35°C° 0 mm 3 m/s 753 mmHg 56%
    03:00 +34°C° 0 mm 2 m/s 752 mmHg 62%
    04:00 +34°C° 0 mm 2 m/s 752 mmHg 63%
    05:00 +33°C° 0 mm 1 m/s 753 mmHg 64%
    06:00 +33°C° 0 mm 1 m/s 753 mmHg 65%
    07:00 +34°C° 0 mm 1 m/s 753 mmHg 58%
    08:00 +35°C° 0 mm 1 m/s 754 mmHg 51%
    09:00 +37°C° 0 mm 1 m/s 754 mmHg 44%
    10:00 +39°C° 0 mm 2 m/s 754 mmHg 41%
    11:00 +40°C° 0 mm 3 m/s 753 mmHg 38%
    12:00 +40°C° 0 mm 3 m/s 753 mmHg 35%
    13:00 +41°C° 0 mm 4 m/s 753 mmHg 38%
    14:00 +41°C° 0 mm 4 m/s 752 mmHg 41%
    15:00 +41°C° 0 mm 5 m/s 751 mmHg 44%
    16:00 +40°C° 0.1 mm 5 m/s 751 mmHg 47%
    17:00 +40°C° 0.1 mm 4 m/s 751 mmHg 49%
    18:00 +38°C° 0.1 mm 4 m/s 751 mmHg 51%
    19:00 +37°C° 0 mm 3 m/s 752 mmHg 52%
    20:00 +37°C° 0 mm 3 m/s 752 mmHg 52%
    21:00 +36°C° 0 mm 2 m/s 753 mmHg 53%
    22:00 +36°C° 0 mm 2 m/s 753 mmHg 56%
    23:00 +35°C° 0 mm 2 m/s 753 mmHg 59%

    Demain, 27 Mai, Mercredi

    Heure Température Précipitation Vent Pression Humidité
    00:00 +34°C° 0 mm 1 m/s 753 mmHg 62%
    01:00 +35°C° 0 mm 2 m/s 753 mmHg 64%
    02:00 +34°C° 0 mm 2 m/s 752 mmHg 65%
    03:00 +34°C° 0 mm 2 m/s 752 mmHg 67%
    04:00 +33°C° 0 mm 1 m/s 753 mmHg 68%
    05:00 +33°C° 0 mm 1 m/s 753 mmHg 70%
    06:00 +32°C° 0 mm 1 m/s 753 mmHg 72%
    07:00 +33°C° 0 mm 1 m/s 754 mmHg 66%
    08:00 +35°C° 0 mm 1 m/s 754 mmHg 60%
    09:00 +36°C° 0 mm 1 m/s 755 mmHg 54%
    10:00 +37°C° 0 mm 2 m/s 754 mmHg 51%
    11:00 +38°C° 0 mm 3 m/s 754 mmHg 48%
    12:00 +39°C° 0 mm 3 m/s 753 mmHg 45%
    13:00 +40°C° 0 mm 4 m/s 753 mmHg 46%
    14:00 +40°C° 0 mm 4 m/s 752 mmHg 47%
    15:00 +40°C° 0 mm 5 m/s 751 mmHg 49%
    16:00 +40°C° 0 mm 4 m/s 751 mmHg 52%
    17:00 +38°C° 0 mm 3 m/s 751 mmHg 55%
    18:00 +37°C° 0 mm 2 m/s 752 mmHg 59%
    19:00 +37°C° 0 mm 2 m/s 752 mmHg 61%
    20:00 +36°C° 0 mm 2 m/s 753 mmHg 64%
    21:00 +35°C° 0 mm 2 m/s 753 mmHg 67%
    22:00 +35°C° 0 mm 2 m/s 753 mmHg 66%
    23:00 +34°C° 0 mm 1 m/s 753 mmHg 65%

    Après-demain, 28 Mai, Jeudi

    Heure Température Précipitation Vent Pression Humidité
    00:00 +34°C° 0 mm 1 m/s 753 mmHg 65%
    01:00 +34°C° 0 mm 1 m/s 753 mmHg 64%
    02:00 +32°C° 0 mm 0 m/s 752 mmHg 63%
    03:00 +32°C° 0 mm 0 m/s 752 mmHg 62%
    04:00 +32°C° 0 mm 0 m/s 752 mmHg 61%
    05:00 +32°C° 0 mm 0 m/s 752 mmHg 61%
    06:00 +32°C° 0 mm 0 m/s 753 mmHg 60%
    07:00 +35°C° 0 mm 1 m/s 753 mmHg 54%
    08:00 +36°C° 0 mm 1 m/s 754 mmHg 49%
    09:00 +37°C° 0 mm 1 m/s 754 mmHg 43%
    10:00 +39°C° 0 mm 2 m/s 754 mmHg 42%
    11:00 +39°C° 0 mm 3 m/s 753 mmHg 41%
    12:00 +41°C° 0 mm 4 m/s 752 mmHg 40%
    13:00 +41°C° 0 mm 4 m/s 752 mmHg 41%
    14:00 +41°C° 0 mm 4 m/s 751 mmHg 42%
    15:00 +41°C° 0 mm 5 m/s 750 mmHg 44%
    16:00 +41°C° 0 mm 4 m/s 751 mmHg 47%
    17:00 +40°C° 0 mm 4 m/s 751 mmHg 51%
    18:00 +38°C° 0 mm 4 m/s 751 mmHg 55%
    19:00 +37°C° 0.1 mm 3 m/s 751 mmHg 58%
    20:00 +37°C° 0.1 mm 3 m/s 752 mmHg 61%
    21:00 +36°C° 0.1 mm 2 m/s 752 mmHg 64%
    22:00 +36°C° 0 mm 2 m/s 752 mmHg 62%
    23:00 +35°C° 0 mm 1 m/s 752 mmHg 61%

    29 Mai, Vendredi

    Heure Température Précipitation Vent Pression Humidité
    00:00 +35°C° 0 mm 1 m/s 752 mmHg 59%
    01:00 +35°C° 0 mm 1 m/s 752 mmHg 58%
    02:00 +35°C° 0 mm 1 m/s 751 mmHg 58%
    03:00 +35°C° 0 mm 1 m/s 751 mmHg 58%
    04:00 +35°C° 0 mm 1 m/s 752 mmHg 58%
    05:00 +35°C° 0 mm 1 m/s 752 mmHg 59%
    06:00 +35°C° 0 mm 1 m/s 752 mmHg 60%
    07:00 +35°C° 0 mm 1 m/s 753 mmHg 57%
    08:00 +37°C° 0 mm 2 m/s 753 mmHg 54%
    09:00 +38°C° 0 mm 2 m/s 754 mmHg 51%
    10:00 +39°C° 0 mm 2 m/s 753 mmHg 46%
    11:00 +40°C° 0 mm 2 m/s 752 mmHg 41%
    12:00 +41°C° 0 mm 2 m/s 752 mmHg 36%
    13:00 +43°C° 0 mm 3 m/s 751 mmHg 34%
    14:00 +43°C° 0 mm 3 m/s 750 mmHg 32%
    15:00 +44°C° 0 mm 4 m/s 749 mmHg 30%
    16:00 +43°C° 0 mm 3 m/s 749 mmHg 33%
    17:00 +42°C° 0 mm 3 m/s 749 mmHg 37%
    18:00 +40°C° 0 mm 3 m/s 749 mmHg 40%
    19:00 +39°C° 0 mm 2 m/s 750 mmHg 40%
    20:00 +39°C° 0 mm 2 m/s 750 mmHg 41%
    21:00 +38°C° 0 mm 2 m/s 751 mmHg 42%
    22:00 +37°C° 0 mm 2 m/s 751 mmHg 42%
    23:00 +37°C° 0 mm 2 m/s 751 mmHg 42%

    30 Mai, Samedi

    Heure Température Précipitation Vent Pression Humidité
    00:00 +37°C° 0 mm 2 m/s 751 mmHg 43%
    01:00 +36°C° 0 mm 2 m/s 751 mmHg 41%
    02:00 +36°C° 0 mm 2 m/s 750 mmHg 39%
    03:00 +36°C° 0 mm 2 m/s 750 mmHg 37%
    04:00 +35°C° 0 mm 1 m/s 750 mmHg 37%
    05:00 +35°C° 0 mm 1 m/s 751 mmHg 37%
    06:00 +34°C° 0 mm 1 m/s 751 mmHg 37%
    07:00 +36°C° 0 mm 1 m/s 751 mmHg 33%
    08:00 +39°C° 0 mm 1 m/s 752 mmHg 29%
    09:00 +40°C° 0 mm 2 m/s 752 mmHg 25%
    10:00 +41°C° 0 mm 2 m/s 752 mmHg 23%
    11:00 +43°C° 0 mm 3 m/s 751 mmHg 22%
    12:00 +44°C° 0 mm 3 m/s 751 mmHg 21%
    13:00 +45°C° 0 mm 3 m/s 750 mmHg 21%
    14:00 +45°C° 0 mm 4 m/s 750 mmHg 20%
    15:00 +47°C° 0 mm 4 m/s 749 mmHg 20%
    16:00 +44°C° 0 mm 4 m/s 749 mmHg 26%
    17:00 +43°C° 0 mm 4 m/s 749 mmHg 32%
    18:00 +42°C° 0 mm 4 m/s 749 mmHg 37%
    19:00 +41°C° 0 mm 4 m/s 750 mmHg 38%
    20:00 +39°C° 0 mm 3 m/s 750 mmHg 38%
    21:00 +38°C° 0 mm 3 m/s 751 mmHg 39%
    22:00 +38°C° 0 mm 3 m/s 751 mmHg 38%
    23:00 +38°C° 0 mm 3 m/s 751 mmHg 38%

    31 Mai, Dimanche

    Heure Température Précipitation Vent Pression Humidité
    00:00 +37°C° 0 mm 2 m/s 751 mmHg 38%
    01:00 +37°C° 0 mm 2 m/s 751 mmHg 37%
    02:00 +36°C° 0 mm 2 m/s 750 mmHg 37%
    03:00 +35°C° 0 mm 1 m/s 750 mmHg 37%
    04:00 +35°C° 0 mm 1 m/s 751 mmHg 37%
    05:00 +34°C° 0 mm 1 m/s 751 mmHg 38%
    06:00 +34°C° 0 mm 1 m/s 751 mmHg 38%
    07:00 +36°C° 0 mm 2 m/s 752 mmHg 36%
    08:00 +38°C° 0 mm 2 m/s 752 mmHg 34%
    09:00 +39°C° 0 mm 3 m/s 753 mmHg 32%
    10:00 +40°C° 0 mm 3 m/s 752 mmHg 30%
    11:00 +42°C° 0 mm 3 m/s 752 mmHg 28%
    12:00 +42°C° 0 mm 3 m/s 752 mmHg 27%
    13:00 +43°C° 0 mm 3 m/s 751 mmHg 26%
    14:00 +44°C° 0 mm 3 m/s 751 mmHg 26%
    15:00 +44°C° 0 mm 3 m/s 750 mmHg 25%
    16:00 +44°C° 0 mm 3 m/s 750 mmHg 28%
    17:00 +43°C° 0 mm 3 m/s 750 mmHg 31%
    18:00 +42°C° 0 mm 3 m/s 750 mmHg 34%
    19:00 +39°C° 0 mm 3 m/s 751 mmHg 43%
    20:00 +38°C° 0 mm 3 m/s 751 mmHg 51%
    21:00 +36°C° 0 mm 3 m/s 751 mmHg 60%
    22:00 +36°C° 0 mm 2 m/s 752 mmHg 55%
    23:00 +36°C° 0 mm 1 m/s 752 mmHg 50%
    Voir plus